GW3701 Weather Reports


Display with metric or nautical units.
time (UTC)temp
F
wind
direction
speed
MPH
gust
MPH
rain 1hr
in
rain 24hr
in
rain mn
in
humidity
%
barometer
mb
20260510033549 74 114 2.0 6.0 0.00 0.01 0.01 52 1009.8
20260510033047 74 153 1.0 3.0 0.00 0.01 0.01 52 1009.3
20260510032543 73 190 4.0 7.0 0.00 0.01 0.01 52 1009.2
20260510032038 73 168 2.0 3.0 0.00 0.01 0.01 55 1009.4
20260510031528 73 149 4.0 6.0 0.00 0.01 0.01 55 1009.1
20260510031024 72 212 0.0 1.0 0.00 0.01 0.01 57 1009.3
20260510030520 72 132 3.0 6.0 0.00 0.01 0.01 57 1009.3
20260510030017 73 100 2.0 3.0 0.00 0.01 0.01 57 1009.4
20260510025514 73 201 2.0 3.0 0.00 0.01 0.01 56 1009.6
20260510025011 73 207 0.0 0.0 0.00 0.01 0.01 57 1009.7
20260510024503 73 203 0.0 1.0 0.00 0.01 0.01 57 1009.5
20260510023958 72 199 0.0 1.0 0.00 0.01 0.01 58 1009.7
20260510023454 72 206 0.0 0.0 0.00 0.01 0.01 59 1009.8
20260510022952 73 200 1.0 2.0 0.00 0.01 0.01 57 1009.7
20260510022450 73 181 2.0 3.0 0.00 0.01 0.01 57 1009.3
20260510021949 73 205 0.0 0.0 0.00 0.01 0.01 58 1009.4
20260510021447 73 204 0.0 0.0 0.00 0.01 0.01 57 1009.0
20260510020944 73 211 0.0 0.0 0.00 0.01 0.01 58 1009.0
20260510020439 73 185 0.0 1.0 0.00 0.01 0.01 57 1008.5
20260510015935 73 211 0.0 0.0 0.00 0.01 0.01 57 1008.4
20260510015431 73 211 0.0 0.0 0.00 0.01 0.01 57 1008.3
20260510014926 73 210 0.0 0.0 0.00 0.01 0.01 57 1007.8
20260510014424 73 208 0.0 0.0 0.00 0.01 0.01 57 1007.9
20260510013920 73 210 0.0 0.0 0.00 0.01 0.01 58 1007.9
20260510013415 73 207 0.0 0.0 0.00 0.01 0.01 58 1007.9
20260510012911 74 210 0.0 0.0 0.00 0.01 0.01 57 1007.9
20260510012406 74 205 0.0 0.0 0.00 0.01 0.01 57 1007.8
20260510011901 74 205 0.0 0.0 0.00 0.01 0.01 57 1007.7
20260510011356 74 206 0.0 0.0 0.00 0.01 0.01 56 1007.4
20260510010852 75 207 0.0 0.0 0.00 0.01 0.01 56 1007.6
20260510010350 75 204 0.0 0.0 0.00 0.01 0.01 56 1007.6
20260510005846 75 208 0.0 0.0 0.00 0.01 0.01 54 1007.8
20260510005343 76 200 0.0 1.0 0.00 0.01 0.01 53 1007.8
20260510004840 77 208 0.0 0.0 0.00 0.01 0.01 52 1007.9
20260510004338 77 208 0.0 0.0 0.00 0.01 0.01 51 1007.8
20260510003836 77 205 0.0 0.0 0.00 0.01 0.01 50 1007.7
20260510003332 78 198 1.0 2.0 0.00 0.01 0.01 49 1007.4
20260510002830 78 206 0.0 0.0 0.00 0.01 0.01 48 1007.6
20260510002328 78 212 0.0 0.0 0.00 0.01 0.01 47 1007.8
20260510001825 79 208 0.0 0.0 0.00 0.01 0.01 47 1007.8
20260510001323 79 207 0.0 0.0 0.00 0.01 0.01 47 1007.8
20260510000819 80 210 0.0 0.0 0.00 0.01 0.01 47 1007.8
20260510000318 80 212 0.0 0.0 0.00 0.01 0.01 46 1007.8
20260509235813 80 203 0.0 0.0 0.00 0.01 0.01 46 1007.7
20260509235310 81 199 1.0 2.0 0.00 0.01 0.01 47 1007.8
20260509234806 82 189 1.0 3.0 0.00 0.01 0.01 44 1007.8
20260509234302 83 191 2.0 3.0 0.00 0.01 0.01 44 1007.9
20260509233801 83 207 0.0 1.0 0.00 0.01 0.01 44 1007.8
20260509233257 83 198 1.0 1.0 0.00 0.01 0.01 44 1007.9
20260509232753 84 205 2.0 2.0 0.00 0.01 0.01 45 1007.8
20260509232251 84 207 0.0 0.0 0.00 0.01 0.01 43 1007.9
20260509231747 84 216 2.0 3.0 0.00 0.01 0.01 41 1008.1
20260509231244 84 204 0.0 1.0 0.00 0.01 0.01 39 1008.2
20260509230741 84 78 2.0 3.0 0.00 0.01 0.01 38 1007.9
20260509230238 84 191 1.0 2.0 0.00 0.01 0.01 38 1008.1
20260509225733 84 112 2.0 3.0 0.00 0.01 0.01 35 1008.3
20260509225229 85 211 0.0 1.0 0.00 0.01 0.01 37 1008.2
20260509224725 85 193 4.0 7.0 0.00 0.01 0.01 35 1008.4
20260509224223 85 207 3.0 4.0 0.00 0.01 0.01 33 1008.7
20260509223719 85 209 0.0 0.0 0.00 0.01 0.01 34 1008.6
20260509223217 85 214 1.0 1.0 0.00 0.01 0.01 33 1008.7
20260509222713 86 211 0.0 0.0 0.00 0.01 0.01 32 1008.7
20260509222209 86 208 1.0 1.0 0.00 0.01 0.01 33 1008.7
20260509221705 86 211 0.0 0.0 0.00 0.01 0.01 33 1009.0
20260509221201 86 214 0.0 0.0 0.00 0.01 0.01 33 1008.8
20260509220657 86 208 1.0 1.0 0.00 0.01 0.01 33 1008.8
20260509220154 87 176 3.0 3.0 0.00 0.01 0.01 33 1008.8
20260509215650 87 200 1.0 1.0 0.00 0.01 0.01 33 1008.7
20260509215147 86 222 2.0 3.0 0.00 0.01 0.01 32 1008.8
20260509214644 87 218 1.0 1.0 0.00 0.01 0.01 31 1008.7
20260509214141 86 209 1.0 1.0 0.00 0.01 0.01 31 1008.8
20260509213638 86 195 1.0 1.0 0.00 0.01 0.01 31 1008.8
20260509213133 86 200 2.0 4.0 0.00 0.01 0.01 31 1008.8
20260509212631 86 206 2.0 2.0 0.00 0.01 0.01 33 1008.8
20260509212127 87 196 3.0 3.0 0.00 0.01 0.01 30 1009.0
20260509211624 85 213 1.0 2.0 0.00 0.01 0.01 33 1009.1
20260509211120 86 13 3.0 4.0 0.00 0.01 0.01 31 1009.1
20260509210617 87 201 2.0 2.0 0.00 0.01 0.01 33 1009.1
20260509210114 86 207 0.0 0.0 0.00 0.01 0.01 35 1009.3
20260509205608 86 213 0.0 0.0 0.00 0.01 0.01 34 1009.4
20260509205103 86 214 0.0 1.0 0.00 0.01 0.01 34 1009.2
20260509204600 86 207 1.0 3.0 0.00 0.01 0.01 37 1009.3
20260509204056 86 215 0.0 1.0 0.00 0.01 0.01 39 1009.4
20260509203546 86 209 1.0 1.0 0.00 0.01 0.01 39 1009.3
20260509203044 86 236 1.0 2.0 0.00 0.01 0.01 39 1009.3
20260509202539 85 208 0.0 0.0 0.00 0.01 0.01 38 1009.3
20260509202035 84 209 3.0 4.0 0.00 0.01 0.01 37 1009.6
20260509201530 86 148 3.0 4.0 0.00 0.01 0.01 39 1009.6
20260509201027 86 219 2.0 3.0 0.00 0.01 0.01 39 1009.6
20260509200521 86 218 4.0 4.0 0.00 0.01 0.01 36 1009.7
20260509200018 86 202 1.0 1.0 0.00 0.01 0.01 37 1009.8
20260509195513 86 215 1.0 1.0 0.00 0.01 0.01 36 1009.7
20260509195008 87 227 1.0 2.0 0.00 0.01 0.01 37 1009.9
20260509194503 87 228 2.0 2.0 0.00 0.01 0.01 35 1010.0
20260509194000 86 210 0.0 1.0 0.00 0.01 0.01 36 1010.0
20260509193455 84 211 0.0 1.0 0.00 0.01 0.01 40 1010.1
20260509192951 85 191 3.0 3.0 0.00 0.01 0.01 38 1010.4
20260509192448 85 203 0.0 0.0 0.00 0.01 0.01 38 1010.1
20260509191943 86 210 1.0 2.0 0.00 0.01 0.01 36 1010.2
20260509191438 84 205 1.0 1.0 0.00 0.01 0.01 37 1010.4
20260509190934 84 210 0.0 1.0 0.00 0.01 0.01 38 1010.2
20260509190432 84 210 1.0 1.0 0.00 0.01 0.01 40 1010.4
20260509185930 83 227 0.0 1.0 0.00 0.01 0.01 42 1010.4
20260509185427 83 204 0.0 0.0 0.00 0.01 0.01 42 1010.5
20260509184923 83 179 3.0 3.0 0.00 0.01 0.01 44 1010.6
20260509184421 83 203 4.0 6.0 0.00 0.01 0.01 43 1010.6
20260509183917 83 214 2.0 3.0 0.00 0.01 0.01 43 1010.4
20260509183411 83 206 1.0 1.0 0.00 0.01 0.01 44 1010.8
20260509182908 83 204 3.0 3.0 0.00 0.01 0.01 46 1010.7
20260509182404 82 214 0.0 0.0 0.00 0.01 0.01 40 1010.7
20260509181902 82 207 1.0 2.0 0.00 0.01 0.01 43 1010.9
20260509181359 81 211 0.0 0.0 0.00 0.01 0.01 45 1010.9
20260509180856 83 265 2.0 3.0 0.00 0.01 0.01 46 1010.8
20260509180346 82 222 0.0 1.0 0.00 0.01 0.01 45 1011.2
20260509175844 82 218 2.0 2.0 0.00 0.01 0.01 45 1011.2
20260509175339 82 215 0.0 0.0 0.00 0.01 0.01 45 1011.2
20260509174835 82 197 0.0 1.0 0.00 0.01 0.01 45 1011.4
20260509174331 84 216 0.0 0.0 0.00 0.01 0.01 41 1011.6
20260509173827 82 215 0.0 1.0 0.00 0.01 0.01 38 1011.5
20260509173323 82 203 0.0 1.0 0.00 0.01 0.01 42 1011.6
20260509172819 80 216 0.0 0.0 0.00 0.01 0.01 42 1011.4
20260509172317 82 216 0.0 0.0 0.00 0.01 0.01 44 1011.6
20260509171813 81 210 1.0 1.0 0.00 0.01 0.01 48 1011.5
20260509171308 80 212 0.0 0.0 0.00 0.01 0.01 50 1011.5
20260509170804 80 211 0.0 1.0 0.00 0.01 0.01 51 1011.6
20260509170300 79 218 2.0 3.0 0.00 0.01 0.01 55 1011.7
20260509165800 78 195 1.0 1.0 0.00 0.01 0.01 58 1011.5
20260509165255 79 186 1.0 2.0 0.00 0.01 0.01 55 1011.7
20260509164751 78 181 2.0 3.0 0.00 0.01 0.01 57 1011.7
20260509164247 78 159 1.0 4.0 0.00 0.01 0.01 57 1011.9
20260509163745 78 208 1.0 1.0 0.00 0.01 0.01 59 1011.7
20260509163240 78 221 0.0 1.0 0.00 0.01 0.01 57 1012.0
20260509162739 77 206 0.0 0.0 0.00 0.01 0.01 63 1012.1
20260509162233 75 207 0.0 0.0 0.00 0.01 0.01 66 1012.0
20260509161729 75 202 0.0 0.0 0.00 0.01 0.01 64 1012.0
20260509161226 76 203 0.0 0.0 0.00 0.01 0.01 63 1011.9
20260509160721 76 200 2.0 2.0 0.00 0.01 0.01 65 1012.0
20260509160218 75 214 1.0 2.0 0.00 0.01 0.01 69 1011.8
20260509155713 73 205 1.0 1.0 0.00 0.01 0.01 75 1011.9
20260509155210 73 213 0.0 0.0 0.00 0.01 0.01 79 1011.9
20260509154706 72 211 0.0 0.0 0.00 0.01 0.01 83 1011.5
20260509154203 72 213 0.0 1.0 0.00 0.01 0.01 80 1011.6
20260509153700 72 214 0.0 0.0 0.00 0.01 0.01 81 1011.7
20260509153156 73 200 0.0 1.0 0.00 0.01 0.01 81 1011.8
20260509152652 73 211 0.0 0.0 0.00 0.01 0.01 79 1011.8
20260509152149 73 207 0.0 0.0 0.00 0.01 0.01 81 1011.7
20260509151646 73 208 0.0 0.0 0.00 0.01 0.01 81 1011.6
20260509151143 73 204 1.0 1.0 0.00 0.01 0.01 80 1011.9
20260509150641 72 203 0.0 1.0 0.00 0.01 0.01 80 1011.7
20260509150139 72 211 0.0 0.0 0.00 0.01 0.01 80 1011.6
20260509145635 71 188 2.0 3.0 0.00 0.01 0.01 81 1011.4
20260509145131 71 206 1.0 2.0 0.00 0.01 0.01 84 1011.5
20260509144627 70 185 1.0 2.0 0.00 0.01 0.01 84 1011.6
20260509144124 70 202 1.0 2.0 0.00 0.01 0.01 84 1011.6
20260509143622 69 213 0.0 0.0 0.00 0.01 0.01 86 1011.5
20260509143119 68 216 0.0 0.0 0.00 0.01 0.01 88 1011.7
20260509142614 67 214 1.0 1.0 0.00 0.01 0.01 91 1011.7
20260509142111 66 220 0.0 0.0 0.00 0.01 0.01 94 1011.8
20260509141607 65 220 1.0 1.0 0.00 0.01 0.01 95 1011.8
20260509141103 64 212 0.0 0.0 0.00 0.01 0.01 96 1011.8
20260509140601 64 212 0.0 0.0 0.00 0.01 0.01 99 1011.6
20260509140058 63 212 0.0 0.0 0.00 0.01 0.01 99 1011.6
20260509135555 63 210 0.0 0.0 0.00 0.01 0.01 99 1011.5
20260509135053 63 209 1.0 1.0 0.00 0.01 0.01 99 1011.5
20260509134550 63 212 0.0 0.0 0.00 0.01 0.01 99 1011.4
20260509134047 62 212 0.0 0.0 0.00 0.01 0.01 99 1011.3
20260509133544 61 210 0.0 0.0 0.00 0.01 0.01 99 1011.0
20260509133041 62 210 0.0 0.0 0.00 0.01 0.01 99 1011.4
20260509132539 61 210 0.0 0.0 0.00 0.01 0.01 99 1011.2
20260509132037 59 209 0.0 0.0 0.00 0.01 0.01 99 1011.4
20260509131528 59 209 0.0 0.0 0.00 0.01 0.01 99 1011.2
20260509131025 59 209 2.0 2.0 0.00 0.01 0.01 99 1011.5
20260509130520 59 211 1.0 1.0 0.00 0.01 0.01 99 1011.2
20260509130017 60 212 0.0 0.0 0.00 0.01 0.01 99 1010.9
20260509125514 59 212 0.0 0.0 0.00 0.01 0.01 99 1010.7
20260509125010 59 212 0.0 0.0 0.00 0.01 0.01 99 1010.8
20260509124507 58 212 0.0 0.0 0.00 0.01 0.01 99 1010.8
20260509124004 58 212 0.0 0.0 0.00 0.01 0.01 99 1010.7
20260509123502 57 214 0.0 0.0 0.00 0.01 0.01 99 1010.7
20260509122958 57 214 0.0 0.0 0.00 0.01 0.01 99 1010.6
20260509122455 57 214 0.0 0.0 0.00 0.01 0.01 99 1010.5
20260509121952 56 214 0.0 0.0 0.00 0.01 0.01 99 1010.6
20260509121448 56 214 0.0 0.0 0.00 0.01 0.01 99 1010.7
20260509120946 56 214 0.0 0.0 0.00 0.01 0.01 99 1010.4
20260509120444 56 214 0.0 0.0 0.00 0.01 0.01 99 1010.2
20260509115942 55 215 0.0 0.0 0.00 0.01 0.01 99 1010.3
20260509115439 55 214 0.0 0.0 0.00 0.01 0.01 99 1010.2
20260509114936 55 215 0.0 0.0 0.00 0.01 0.01 99 1010.3
20260509114435 55 215 0.0 0.0 0.00 0.01 0.01 99 1010.1
20260509113934 55 214 0.0 0.0 0.00 0.01 0.01 99 1010.2
20260509113431 55 214 0.0 0.0 0.00 0.01 0.01 99 1009.8
20260509112927 55 214 0.0 0.0 0.00 0.01 0.01 99 1010.0
20260509112425 56 214 0.0 0.0 0.00 0.01 0.01 99 1009.9
20260509111921 56 214 0.0 0.0 0.00 0.01 0.01 99 1009.6
20260509111419 56 214 0.0 0.0 0.00 0.01 0.01 99 1009.9
20260509110916 56 214 0.0 0.0 0.00 0.01 0.01 99 1009.7
20260509110412 56 214 0.0 0.0 0.00 0.01 0.01 99 1009.8
20260509105910 56 214 0.0 0.0 0.00 0.01 0.01 99 1009.8
20260509105408 57 214 0.0 0.0 0.00 0.01 0.01 99 1009.7
20260509104859 57 214 0.0 0.0 0.00 0.01 0.01 99 1009.7
20260509104356 57 214 0.0 0.0 0.00 0.01 0.01 99 1009.8
20260509103853 57 214 0.0 0.0 0.00 0.01 0.01 99 1010.1
20260509103350 58 214 0.0 0.0 0.00 0.01 0.01 99 1010.0
20260509102849 58 214 0.0 0.0 0.00 0.01 0.01 99 1009.9
20260509102346 58 214 0.0 0.0 0.00 0.01 0.01 99 1010.0
20260509101841 58 214 0.0 0.0 0.00 0.01 0.01 99 1009.9
20260509101338 57 214 0.0 0.0 0.00 0.01 0.01 99 1010.3
20260509100836 57 214 0.0 0.0 0.00 0.01 0.01 99 1010.3
20260509100333 58 214 0.0 0.0 0.00 0.01 0.01 99 1010.3
20260509095829 57 214 0.0 0.0 0.00 0.01 0.01 99 1010.3
20260509095327 57 214 0.0 0.0 0.00 0.01 0.01 99 1010.4
20260509094824 57 214 0.0 0.0 0.00 0.01 0.01 99 1010.5
20260509094320 57 214 0.0 0.0 0.00 0.01 0.01 99 1010.5
20260509093818 57 214 1.0 2.0 0.00 0.01 0.01 99 1010.6
20260509093315 57 215 0.0 0.0 0.00 0.01 0.01 99 1010.4
20260509092814 57 215 0.0 0.0 0.00 0.01 0.01 99 1010.4
20260509092311 57 215 0.0 0.0 0.00 0.01 0.01 99 1010.5
20260509091809 57 214 0.0 1.0 0.00 0.01 0.01 99 1010.3
20260509091305 57 214 0.0 0.0 0.00 0.01 0.01 99 1010.3
20260509090803 57 214 0.0 0.0 0.00 0.01 0.01 99 1010.4
20260509090300 58 215 0.0 0.0 0.00 0.01 0.01 99 1010.5
20260509085757 58 214 0.0 0.0 0.00 0.01 0.01 99 1010.6
20260509085255 57 213 0.0 0.0 0.00 0.01 0.01 99 1010.4
20260509084751 57 213 0.0 0.0 0.00 0.01 0.01 99 1010.4
20260509084248 57 213 0.0 0.0 0.00 0.01 0.01 99 1010.4
20260509083746 57 213 0.0 0.0 0.00 0.01 0.01 99 1010.4
20260509083242 58 213 0.0 0.0 0.00 0.01 0.01 99 1010.3
20260509082739 57 213 0.0 0.0 0.00 0.01 0.01 99 1010.3
20260509082235 57 213 0.0 0.0 0.00 0.01 0.01 99 1010.2
20260509081732 57 213 0.0 0.0 0.00 0.01 0.01 99 1010.4
20260509081230 57 213 0.0 0.0 0.00 0.01 0.01 99 1010.4
20260509080728 57 214 0.0 0.0 0.00 0.01 0.01 99 1010.5
20260509080225 57 216 0.0 0.0 0.00 0.01 0.01 99 1010.6
20260509075723 57 216 0.0 0.0 0.00 0.01 0.01 99 1010.8
20260509075221 57 216 0.0 0.0 0.00 0.01 0.01 99 1010.8
20260509074718 57 217 0.0 0.0 0.00 0.01 0.01 99 1010.8
20260509074215 57 217 0.0 0.0 0.00 0.01 0.01 99 1010.7
20260509073711 57 216 0.0 0.0 0.00 0.01 0.01 99 1010.9
20260509073208 57 216 0.0 0.0 0.00 0.01 0.01 99 1010.8
20260509072704 57 216 0.0 0.0 0.00 0.01 0.01 99 1010.9
20260509072201 57 216 0.0 0.0 0.00 0.01 0.01 99 1011.0
20260509071658 57 216 0.0 0.0 0.00 0.01 0.01 99 1011.0
20260509071155 57 217 0.0 0.0 0.00 0.01 0.01 99 1011.0
20260509070652 58 216 0.0 1.0 0.00 0.01 0.01 99 1010.9
20260509070148 58 206 0.0 0.0 0.00 0.01 0.01 99 1010.9
20260509065644 58 206 0.0 0.0 0.00 0.01 0.01 99 1010.8
20260509065140 58 205 0.0 0.0 0.00 0.01 0.01 99 1010.7
20260509064637 58 202 0.0 0.0 0.00 0.01 0.01 99 1010.7
20260509064135 57 208 0.0 0.0 0.00 0.01 0.01 99 1010.9
20260509063632 57 208 0.0 0.0 0.00 0.01 0.01 99 1011.0
20260509063128 58 208 0.0 0.0 0.00 0.01 0.01 99 1011.3
20260509062625 58 208 0.0 0.0 0.00 0.01 0.01 99 1011.0
20260509062117 58 207 0.0 0.0 0.00 0.01 0.01 99 1011.4
20260509061614 58 207 0.0 0.0 0.00 0.01 0.01 99 1011.4
20260509061111 58 207 0.0 0.0 0.00 0.01 0.01 99 1011.4
20260509060609 58 207 0.0 0.0 0.00 0.01 0.01 99 1011.2
20260509060104 58 207 0.0 0.0 0.00 0.01 0.01 99 1011.0
20260509055600 58 207 0.0 0.0 0.00 0.01 0.01 99 1011.4
20260509055056 59 208 0.0 0.0 0.00 0.01 0.01 99 1011.3
20260509054553 59 208 0.0 0.0 0.00 0.01 0.01 99 1011.4
20260509054051 59 208 0.0 0.0 0.07 0.01 0.01 99 1011.2
20260509053549 59 207 0.0 0.0 0.07 0.01 0.01 99 1011.3
20260509053046 59 199 0.0 0.0 0.00 0.00 0.00 99 1011.2
20260509052543 59 204 0.0 0.0 0.00 0.00 0.00 98 1011.3
20260509052042 59 204 0.0 0.0 0.00 0.00 0.00 98 1011.0
20260509051539 60 187 0.0 0.0 0.00 0.00 0.00 98 1010.9
20260509051036 60 196 0.0 0.0 0.00 0.00 0.00 98 1011.0
20260509050533 60 194 2.0 3.0 0.00 0.00 0.00 98 1010.9
20260509050029 60 196 1.0 1.0 0.00 0.17 0.17 98 1011.0
20260509045526 60 199 1.0 2.0 0.00 0.17 0.17 98 1010.8
20260509045023 60 197 2.0 3.0 0.00 0.17 0.17 98 1010.9
20260509044520 60 180 2.0 2.0 0.00 0.17 0.17 98 1011.2
20260509044013 60 185 2.0 2.0 0.00 0.17 0.17 98 1011.2
20260509043508 60 159 2.0 3.0 0.00 0.17 0.17 98 1011.4
20260509043005 60 199 1.0 2.0 0.00 0.17 0.17 98 1011.2
20260509042501 60 128 2.0 3.0 0.00 0.17 0.17 99 1011.0
20260509041957 59 184 2.0 3.0 0.00 0.17 0.17 99 1011.3
20260509041454 59 193 1.0 2.0 0.00 0.17 0.17 99 1011.5
20260509040952 60 51 3.0 4.0 0.00 0.17 0.17 98 1011.4
20260509040450 60 204 0.0 0.0 0.00 0.17 0.17 99 1011.0
20260509035946 60 199 0.0 1.0 0.00 0.17 0.17 99 1010.9
20260509035443 60 203 0.0 0.0 0.00 0.17 0.17 98 1010.5
20260509034939 60 202 1.0 1.0 0.00 0.17 0.17 98 1010.7
20260509034438 60 203 1.0 1.0 0.00 0.17 0.17 98 1010.7
20260509033934 60 205 0.0 0.0 0.00 0.17 0.17 98 1010.6